FENGYUN 1C DEB, 31339

Orbit data source: Space-Track

FENGYUN 1C DEB, 31339 is space debris in SSO originally from a launch on Mon, 10 May 1999 UTC launched from the Taiyaun Space Center, China (TSC). Fengyun 1C debris stems from the Chinese weather satellite Fengyun-1C, which was intentionally destroyed by a Chinese anti-satellite missile in 2007. This event dramatically increased the amount of space debris, with thousands of trackable fragments posing hazards to satellites and human spaceflight. The Fengyun 1C debris cloud has become a focal point in discussions about space sustainability and the need for international regulations to prevent the creation of new debris.

Loading next visibility...
Identifier
31339, 1999-025BQT
Orbit
SSO
Country
Flag of CNCN / PRC
Related business
Manufacturer
Unknown
Mission
Spacecraft
Bus & Motor
Unknown
Mass
Unknown
Launch date (UTC)
1999-05-10 (27 years ago)
Launch vehicle
Unknown
Launch site
Taiyaun Space Center, China (TSC)
Object type
Payload
Rocket body
Debris
Shape & HBR
Unknown shape, 0.1 m
Radar Cross Section
Medium (>0.1 m² and <1 m²)

Expand to show TLE details & history
Last TLE update: 18 hours ago

TLE from 18 hours ago
0 FENGYUN 1C DEB
1 31339U 99025BQT 26208.79170189  .00001444  00000-0  77746-3 0  9991
2 31339  98.7032 224.1430 0075438  39.8369 320.8308 14.12874789988832
Epoch: 2026-07-27T19:00Z
TLE epoch observation values (Epoch: 2026-07-27T19:00:03.043Z)
Latitude
0.00001°
Longitude
-6.33988°
Altitude
810.341 km
Speed
7.47 km/s
True Right ascension
14h 56m 34s
True Declination
0° 00' 00"
Sunlit
Object was in daylight at epoch
Visualization orbit readout
Latitude
Unknown
Longitude
Unknown
Altitude
Unknown
Speed
Unknown
Apparent Right ascension
Unknown
Apparent Declination
Unknown
Sunlit
N/A
Visualization observer readout
Local Sidereal Time
02:43:37
Azimuth
Unknown
Elevation
Unknown
Doppler factor
Unknown
Orbital elements
Apogee altitude
901.221 km
Perigee altitude
792.216 km
Semi-major axis
7,224.855 km
Eccentricity
0.00754
Inclination
98.7032°
RAAN
224.143°
Arg. of periapsis
39.8369°
True anomaly
320.28079°
Mean anomaly
320.8308°
Eccentric anomaly
320.5562°
Mean motion
3.53427 °/min
Orbital period
101.86 mins
BSTAR
0.00077746
Loading maneuver chart data...
Computing Atmospheric mass density...

Documentation

Showing up to 5 results
|